Location: ???????
(55.9794°N, 39.1691°E)
Time: 05:43:34
(UTC+00:00)

Daily predictions for brighter satellites

Satellite Brightness Start Highest point End
(mag) Time Altitude Azimuth Time Altitude Azimuth Time Altitude Azimuth
KORONAS-FOTON 4.2 00:05:10 26° WSW 00:06:27 37° WNW 00:09:37 10° N
Cosmos 372 Rocket 4.1 00:01:54 10° NNW 00:07:08 81° ENE 00:12:17 10° SSE
USA 290 3.7 00:05:18 14° SSE 00:07:30 30° ESE 00:10:20 10° NE
DMSP B5D2-2 4.0 00:05:01 10° S 00:10:09 66° WSW 00:15:21 10° NNW
Meteor 2-6 Rocket 4.5 00:06:55 19° SSW 00:11:05 63° WNW 00:16:59 10° N
Cosmos 1536 4.3 00:09:12 10° NW 00:11:40 17° W 00:12:17 17° W
IDEFIX/ARIANE 42P 2.9 00:08:02 10° N 00:13:03 51° WNW 00:16:41 18° SW
Cosmos 1812 Rocket 3.5 00:12:34 18° SSW 00:15:47 80° WNW 00:20:10 10° N
Meteor 2-20 4.5 00:10:34 12° S 00:16:17 89° E 00:22:28 10° NNE
Envisat 3.2 00:11:14 10° NNE 00:16:20 71° ESE 00:21:15 11° S
COSMOS 2441 4.3 00:11:54 10° NNE 00:16:43 81° WNW 00:20:35 16° SSW
ATLAS 2AS CENTAUR R/B 3.5 00:11:25 10° W 00:18:03 48° NNW 00:24:37 10° ENE
Aureole 1 Rocket 3.0 00:14:12 10° NNW 00:18:06 67° WSW 00:22:59 10° SSE
USA 234 3.4 00:16:19 10° SE 00:22:41 53° SW 00:29:04 10° WNW
Cosmos 2084 Rocket 4.1 00:22:57 10° WNW 00:26:41 31° SW 00:30:25 10° S
JB-3 4.1 00:23:08 10° SSE 00:26:44 83° ENE 00:30:22 10° NNW
Meteor 1-27 Rocket 4.1 00:21:49 10° S 00:27:42 72° E 00:33:36 10° NNE
Iridium 4 Rocket 3.4 00:23:28 12° SSW 00:27:49 72° W 00:33:01 10° N
ADEOS II 2.7 00:23:59 10° NNE 00:29:10 57° ESE 00:34:18 10° S
Cosmos 990 Rocket 4.5 00:25:03 10° NW 00:29:47 38° WSW 00:34:30 10° S
MOZ.5/SAFIR/RUBIN 5/SL-8 4.5 00:27:09 14° SSW 00:30:34 34° W 00:34:49 10° NNW
SWARM A 4.2 00:27:49 10° N 00:31:01 59° W 00:33:49 13° SSW
MSX 4.5 00:26:43 10° N 00:32:07 43° WNW 00:36:45 14° SW
Cosmos 1707 4.3 00:31:24 11° W 00:32:29 13° WNW 00:33:57 10° NNW
Cosmos 44 Rocket 3.8 00:29:47 14° WSW 00:34:09 59° NNW 00:39:20 10° NE
ADEOS Rocket 3.7 00:27:06 10° NNE 00:34:27 66° WNW 00:41:53 11° SW
Cosmos 1975 3.9 00:31:40 10° NW 00:34:36 23° W 00:36:21 16° SW
H-2A R/B 2.4 00:31:30 10° S 00:34:59 44° W 00:38:27 10° NNW
ALOS 2.3 00:31:59 10° NNE 00:36:34 81° ESE 00:41:07 10° SSW
COSMOS 2406 3.7 00:32:29 14° WSW 00:37:18 54° NW 00:42:58 10° NNE
CZ-2D R/B 2.2 00:32:04 10° NNE 00:37:20 82° ESE 00:42:40 10° SSW
COSMOS 2428 2.9 00:31:41 10° NNW 00:37:27 78° NE 00:43:10 10° SE
TSX-5 4.3 00:34:21 10° NNW 00:37:30 48° NE 00:40:30 10° ESE
SL-16 R/B 2.9 00:31:21 10° SSE 00:37:34 70° ENE 00:43:50 10° NNW
Cosmos 1763 Rocket 3.5 00:33:22 14° SSW 00:38:01 83° WNW 00:43:21 10° NNE
Alouette 2 Rocket 3.4 00:34:43 10° NNW 00:39:07 58° W 00:42:40 10° S
Cosmos 1238 Rocket 2.0 00:39:50 11° S 00:42:35 85° ESE 00:45:42 10° NNE
Okean 3 Rocket 4.0 00:42:20 10° N 00:46:47 68° ENE 00:51:13 10° SSE
Sich 1 3.3 00:43:16 10° N 00:47:27 70° ENE 00:51:35 10° SSE
Cosmos 1898 Rocket 3.4 00:42:41 10° NNW 00:47:50 69° WSW 00:52:57 10° SSE
FENGYUN 3A 4.5 00:46:56 10° N 00:51:55 38° WNW 00:56:43 11° SW
Cosmos 1937 Rocket 3.4 00:47:16 10° NNW 00:52:31 82° WSW 00:57:41 10° SSE
Cosmos 2360 Rocket 3.1 00:48:11 10° NW 00:52:50 27° WSW 00:57:29 10° SSW
Cosmos 1758 4.0 00:49:34 10° N 00:53:10 51° ENE 00:56:43 10° SSE
SL-16 R/B 4.4 00:48:18 10° NNW 00:53:13 29° NNE 00:58:08 10° E
Cosmos 1607 4.3 00:47:22 11° WSW 00:53:23 61° NNW 00:59:39 10° NE
Cosmos 2333 Rocket 3.6 00:49:55 10° WNW 00:53:29 17° W 00:57:03 10° SW
Cosmos 1805 Rocket 4.5 00:51:44 10° N 00:56:06 54° ENE 01:00:22 10° SSE
Meteor 2-10 Rocket 3.5 00:55:49 10° NNW 01:00:54 75° W 01:06:08 10° S
Cosmos 1553 Rocket 4.3 00:58:44 10° S 01:04:56 76° E 01:11:16 10° NNE
Cosmos 2082 Rocket 3.6 01:00:31 10° W 01:05:28 29° NNW 01:10:27 10° NNE
Resurs 1-4 Rocket 2.3 01:00:57 10° NNE 01:06:11 60° WNW 01:11:23 10° SW
Cosmos 540 Rocket 3.7 01:01:43 10° SW 01:06:48 59° WNW 01:11:55 10° NNE
H-2A R/B 3.1 01:03:16 10° NNE 01:07:08 41° E 01:10:55 10° S
Cosmos 2322 Rocket 3.5 01:03:55 10° NW 01:07:53 20° W 01:11:51 10° SW
Cosmos 2221 3.9 01:07:51 10° WSW 01:11:09 23° WNW 01:14:28 10° N
Cosmos 468 Rocket 4.1 01:07:24 10° SSW 01:12:42 82° WNW 01:18:02 10° NNE
ACS3 Solar Sail 3.5 01:09:00 10° N 01:12:47 18° NW 01:16:36 10° W
CZ-2C R/B 4.0 01:10:59 10° NNE 01:15:29 35° E 01:19:51 10° SSE
USA 305 0.6 01:16:36 10° W 01:18:18 31° SSW 01:19:10 10° SE
Cosmos 1766 Rocket 4.4 01:14:37 10° NNW 01:18:26 30° W 01:22:12 10° SSW
Cosmos 1833 4.3 01:12:43 10° SW 01:18:26 77° NW 01:24:09 10° NNE
NOSS 3-3 (A) 4.2 01:14:46 10° WSW 01:20:20 64° NNW 01:27:13 10° NE
Cosmos 1340 Rocket 3.9 01:16:44 10° N 01:20:22 47° ENE 01:24:00 10° SE
H-2A R/B 2.2 01:15:53 10° N 01:20:55 62° WNW 01:26:04 10° SSW
Cosmos 2219 Rocket 3.2 01:17:36 10° NW 01:22:07 25° WSW 01:26:39 10° SSW
Cosmos 2237 Rocket 2.5 01:16:54 10° NNW 01:22:39 76° NE 01:28:21 10° SE
